GEFSGL_850_meantemp_054.txt.gz
Temperature
12 12 12 12 12 12 12 12 13 13 13 13 14 14 14 14 14 15 15 15 15 15 15 15 15 15 15 15 15 15 15 15 15 15 15 15 15 15 15 15 15 15 15
12 11 11 12 12 12 12 12 12 12 13 13 13 13 14 14 14 14 14 14 15 15 15 15 15 15 15 15 14 14 15 15 15 15 15 14 14 14 14 14 14 14 14
12 11 11 11 11 11 11 12 12 12 12 12 12 13 13 13 13 13 14 14 14 14 14 14 14 14 14 14 14 14 14 14 14 14 14 14 14 14 14 14 14 14 14
12 11 11 11 11 11 11 11 12 12 12 12 12 12 12 13 13 13 13 13 13 14 14 14 14 14 14 14 14 14 14 14 14 14 14 14 14 14 14 13 13 13 13
12 11 11 11 11 11 11 11 11 11 11 11 12 12 12 12 12 13 13 13 13 13 13 13 13 13 13 13 13 14 14 14 14 14 14 13 13 13 13 13 13 13 13
12 11 11 11 11 11 11 11 11 11 11 11 11 11 12 12 12 12 12 12 13 13 13 13 13 13 13 13 13 13 14 14 14 14 14 13 13 13 13 13 13 13 12
12 11 11 11 11 11 11 11 10 10 11 10 11 11 11 11 12 12 12 12 12 12 12 13 13 13 13 13 13 13 13 13 14 14 14 13 13 13 13 13 13 13 13
12 11 11 11 11 10 10 10 10 10 10 10 10 10 11 11 11 12 12 12 12 12 12 12 12 13 13 13 13 13 13 13 14 14 14 13 13 13 13 13 13 13 12
12 11 11 11 11 10 10 10 10 10 10 10 10 10 10 11 11 11 11 12 12 12 12 12 12 12 13 13 13 13 13 13 13 14 14 13 13 13 13 13 13 13 12
11 11 11 11 11 10 10 9 9 10 10 10 9 10 10 10 11 11 11 11 11 11 11 12 12 12 13 13 13 13 13 13 13 13 13 13 13 13 13 13 13 12 12
11 11 11 11 10 10 10 10 10 10 10 10 9 9 10 10 10 11 11 11 11 11 11 12 12 12 13 13 13 13 13 13 13 13 13 12 12 12 12 12 12 12 12
11 11 11 11 11 10 10 10 10 10 10 10 10 10 9 10 10 10 10 11 11 11 11 12 12 12 12 13 13 13 13 13 12 12 12 12 12 12 12 12 12 12 12
12 12 11 11 11 11 10 10 10 10 10 10 10 10 9 10 10 10 10 10 11 11 11 11 12 12 12 12 13 13 13 12 12 12 12 12 12 12 12 12 12 12 11
12 12 12 11 11 11 11 10 10 10 10 10 10 10 10 10 10 10 10 10 10 11 11 11 12 12 12 12 12 12 12 12 12 12 12 12 11 11 11 11 11 11 11
13 13 12 12 11 11 11 10 10 10 10 10 10 10 10 10 10 10 10 10 10 11 11 11 11 12 12 12 12 12 12 12 12 12 12 11 11 11 11 10 10 10 10
14 13 13 12 12 11 11 11 11 10 10 10 10 10 10 10 10 10 10 10 10 11 11 11 11 11 11 12 12 12 11 11 11 11 11 11 11 11 10 10 10 10 10
14 13 13 12 12 12 11 11 11 11 11 10 10 11 11 11 11 11 10 10 10 11 11 11 11 11 11 11 11 11 11 11 11 11 11 11 11 10 10 10 10 10 9
14 13 13 13 12 12 12 12 11 11 11 11 11 11 11 11 11 11 10 10 10 10 10 10 11 11 11 11 11 11 11 11 11 11 11 10 10 10 10 10 10 9 9
14 13 13 13 12 12 12 12 12 12 11 11 11 11 11 11 11 11 11 10 10 10 10 10 10 10 10 10 10 10 10 10 10 10 10 10 10 10 10 10 10 9 9
14 14 13 13 13 13 12 12 12 12 12 12 11 11 11 11 11 11 11 10 10 10 10 10 10 10 10 10 10 10 10 10 10 10 10 10 10 9 9 9 9 9 9
14 14 14 13 13 13 13 13 13 13 12 12 12 12 11 11 11 10 10 10 10 10 10 10 10 10 10 10 10 10 10 10 10 9 9 9 9 9 9 9 9 9 9
14 14 14 14 13 13 13 13 13 13 13 12 12 12 12 12 11 11 11 11 11 11 11 11 11 10 10 10 10 10 10 10 9 9 9 9 9 9 9 9 9 8 8
14 14 14 14 13 13 13 13 13 13 13 13 12 12 12 12 11 11 11 11 11 11 11 11 11 11 11 11 10 10 10 9 9 9 9 9 9 9 9 9 8 8 8
15 14 14 14 13 13 13 13 13 13 13 13 13 12 12 12 12 12 11 11 11 12 12 12 12 11 11 11 11 11 10 10 10 10 9 9 9 9 8 8 8 8 8
15 14 14 14 13 13 13 13 13 13 13 13 13 13 12 12 12 12 12 12 12 12 12 12 12 12 12 12 12 12 12 11 11 11 10 10 9 9 9 8 8 8 8
15 14 14 14 13 13 13 13 13 13 13 13 13 13 13 12 12 12 12 12 12 12 12 12 12 12 12 12 12 12 12 12 11 11 11 11 10 10 10 9 9 8 8

GEFSGL_850_meantemp_060.txt.gz
Temperature
11 11 11 11 11 11 12 12 12 12 12 12 13 13 13 14 14 14 14 15 15 15 15 15 15 15 15 15 15 15 15 15 15 16 16 16 15 15 15 15 15 15 15
11 11 11 11 11 11 11 11 12 12 12 12 12 12 13 13 13 14 14 14 14 15 15 15 15 15 15 15 15 15 15 15 15 15 15 15 15 15 15 15 14 14 14
11 11 11 11 11 11 11 11 11 11 12 12 12 12 12 13 13 13 13 14 14 14 14 14 15 14 14 14 14 14 15 15 15 15 15 14 14 14 14 14 14 14 14
12 11 11 11 11 11 11 11 11 11 11 12 12 12 12 12 12 13 13 13 13 14 14 14 14 14 14 14 14 14 14 14 14 14 14 14 14 14 14 14 13 13 13
12 11 11 11 11 11 11 11 11 11 11 11 11 11 12 12 12 12 12 13 13 13 13 14 14 14 14 14 14 14 14 14 14 14 14 14 13 13 13 13 13 13 13
12 11 11 11 11 10 10 10 10 10 10 11 11 11 11 11 11 12 12 12 12 13 13 13 13 13 13 13 13 14 14 14 14 14 14 14 13 13 13 13 13 13 12
12 11 11 11 10 10 10 10 10 10 10 10 10 11 11 11 11 12 12 12 12 12 12 13 13 13 13 13 13 13 13 13 14 14 14 14 14 13 13 13 13 13 13
12 11 11 11 10 10 10 10 10 10 10 10 10 10 11 11 11 11 11 12 12 12 12 12 12 13 13 13 13 13 13 13 13 13 14 14 14 13 13 13 13 12 12
12 11 11 10 10 10 10 10 10 10 10 10 10 10 10 11 11 11 11 11 12 12 12 12 12 12 12 13 13 13 13 13 13 13 13 13 13 13 13 13 12 12 12
11 11 11 11 10 10 10 10 10 10 10 10 10 10 10 10 11 11 11 11 11 11 11 12 12 12 12 13 13 13 13 13 13 13 13 13 13 13 13 13 13 13 12
11 11 11 11 10 10 10 10 10 10 10 10 10 10 10 10 10 11 11 11 11 11 11 11 12 12 12 12 13 13 13 13 13 13 13 13 13 13 12 12 12 12 12
12 11 11 11 11 11 10 10 10 10 10 10 10 10 10 10 10 10 11 11 11 11 11 11 12 12 12 12 12 13 13 13 13 13 12 12 12 12 12 12 12 12 12
12 12 11 11 11 11 11 10 10 10 10 10 10 10 10 10 10 10 10 11 11 11 11 11 11 12 12 12 12 12 13 13 13 12 12 12 12 12 12 12 12 11 11
12 12 12 12 11 11 11 11 11 10 10 10 10 10 10 10 10 10 10 10 11 11 11 11 11 12 12 12 12 12 12 12 12 12 12 12 12 12 12 11 11 11 11
13 13 12 12 12 11 11 11 11 11 11 11 10 10 10 10 10 10 10 10 11 11 11 11 11 12 12 12 12 12 12 12 12 12 12 12 11 11 11 11 11 11 11
13 13 13 12 12 12 11 11 11 11 11 11 11 11 11 11 10 10 10 11 11 11 11 11 11 11 12 12 12 12 12 12 12 12 11 11 11 11 11 11 10 10 10
14 13 13 13 12 12 12 11 11 11 11 11 11 11 11 11 11 11 11 11 11 11 11 11 11 11 11 11 12 12 12 11 11 11 11 11 11 11 10 10 10 10 10
14 14 13 13 13 12 12 12 11 11 11 11 11 11 11 11 11 11 11 11 11 11 11 11 11 11 11 11 11 11 11 11 11 11 11 11 11 10 10 10 10 10 9
15 14 14 13 13 13 12 12 12 12 11 11 11 11 11 11 11 11 11 11 11 11 11 11 11 11 11 11 11 11 11 11 11 11 11 10 10 10 10 10 10 9 9
15 15 14 14 13 13 13 12 12 12 12 12 12 11 11 11 11 11 11 11 11 11 11 11 11 11 11 11 11 11 11 11 11 11 10 10 10 10 10 10 9 9 9
16 15 15 14 14 13 13 13 13 12 12 12 12 12 12 11 11 11 11 11 11 11 11 11 11 11 11 11 11 10 10 10 10 10 10 10 10 10 9 9 9 9 9
16 15 15 15 14 14 13 13 13 13 12 12 12 12 12 12 12 11 11 11 11 11 11 11 11 11 11 11 11 11 11 11 10 10 10 10 10 9 9 9 9 9 9
16 16 15 15 14 14 14 13 13 13 13 13 12 12 12 12 12 12 12 11 11 11 11 11 11 11 11 11 11 11 11 10 10 10 10 10 10 9 9 9 9 9 8
16 16 16 15 15 14 14 14 13 13 13 13 13 12 12 12 12 12 12 12 11 11 11 11 11 11 11 11 11 11 11 11 10 10 10 10 9 9 9 9 9 9 8
16 16 16 15 15 14 14 14 14 13 13 13 13 13 13 13 12 12 12 12 12 12 12 11 11 11 12 11 11 11 11 11 10 10 10 10 9 9 9 9 9 9 8
16 16 16 16 15 15 14 14 14 13 13 13 13 13 13 13 13 12 12 12 12 12 12 12 12 12 12 12 12 12 11 11 11 10 10 10 9 9 9 9 9 9 8

GEFSGL_850_meantemp_066.txt.gz
Temperature
11 11 11 11 11 11 11 11 11 11 11 11 12 12 12 12 13 13 13 13 13 14 14 14 14 14 15 14 15 15 15 15 15 16 16 16 16 16 16 16 16 16 15
11 11 11 11 11 11 11 11 11 11 11 11 11 11 12 12 12 13 13 13 13 13 14 14 14 14 14 14 14 14 15 15 15 15 15 15 15 15 15 15 15 15 15
12 11 11 11 11 10 10 10 10 11 11 11 11 11 11 11 12 12 12 13 13 13 13 13 14 14 14 14 14 14 14 14 14 15 15 15 15 15 15 14 14 14 14
12 11 11 11 10 10 10 10 10 10 10 11 11 11 11 11 11 12 12 12 13 13 13 13 13 14 14 14 14 14 14 14 14 14 14 14 14 14 14 14 14 14 14
12 11 11 10 10 10 10 10 10 10 10 10 10 10 10 11 11 11 12 12 12 13 13 13 13 13 14 14 14 14 14 14 14 14 14 14 13 13 13 13 13 13 13
12 11 11 10 10 10 10 10 10 10 10 10 10 10 10 11 11 11 11 12 12 12 12 13 13 13 13 13 13 13 13 13 14 13 13 13 13 13 13 13 13 13 12
11 11 11 11 10 10 10 10 10 10 10 10 10 10 10 10 11 11 11 11 12 12 12 12 12 13 13 13 13 13 13 13 13 13 13 13 13 13 13 13 13 13 13
11 11 11 11 10 10 10 10 10 10 10 10 10 10 10 10 11 11 11 11 11 12 12 12 12 13 13 13 13 13 13 13 13 13 13 13 13 13 13 13 13 13 12
12 11 11 11 10 10 10 10 10 10 10 10 10 10 10 10 10 11 11 11 11 11 11 12 12 12 12 13 13 13 13 13 13 13 13 13 13 13 13 13 12 12 12
12 11 11 11 10 10 10 10 10 10 10 10 10 10 10 10 10 10 11 11 11 11 11 11 12 12 12 12 12 13 13 13 13 13 13 13 13 13 12 13 13 12 12
12 12 11 11 11 10 10 10 10 10 10 10 10 10 10 10 10 10 10 11 11 11 11 11 11 11 12 12 12 12 12 12 12 12 12 12 12 12 12 12 12 12 12
12 12 12 11 11 11 11 10 10 10 10 10 10 10 10 10 10 10 10 10 10 11 11 11 11 12 12 12 12 12 12 12 12 12 12 12 12 12 12 12 12 12 12
13 13 12 12 11 11 11 11 10 10 10 10 10 10 10 10 10 10 10 10 10 11 11 11 11 11 12 12 12 12 12 12 12 12 12 12 12 12 12 12 11 11 11
13 13 12 12 12 11 11 11 11 10 10 10 10 10 10 10 10 10 10 10 11 11 11 11 11 11 11 12 12 12 12 12 12 12 12 12 12 12 11 11 11 11 11
14 13 13 13 12 12 11 11 11 11 10 10 10 10 10 10 10 10 10 10 11 11 11 11 11 11 11 12 12 12 12 12 12 12 12 12 12 11 11 11 11 11 11
15 14 14 13 13 12 12 12 11 11 11 11 11 10 10 10 10 10 11 11 11 11 11 11 11 11 11 12 12 12 12 12 12 12 12 12 12 11 11 11 11 11 11
15 15 14 14 13 13 12 12 12 11 11 11 11 11 11 11 10 10 11 11 11 11 11 11 11 11 11 11 12 12 12 11 11 11 11 11 11 11 11 11 10 10 10
16 15 15 14 14 13 13 12 12 12 11 11 11 11 11 11 11 11 11 11 11 11 11 11 11 11 11 11 11 11 11 11 11 11 11 11 11 11 10 10 10 10 10
16 16 15 15 14 14 13 13 12 12 12 12 11 11 11 11 11 11 11 11 11 11 11 11 11 11 11 11 11 11 11 11 11 11 11 11 10 10 10 10 10 10 9
16 16 16 15 15 14 14 13 13 13 12 12 12 12 11 11 11 11 11 11 11 11 11 11 11 11 11 11 11 11 11 11 11 11 11 10 10 10 10 10 10 9 9
16 16 15 15 15 15 15 14 14 13 13 13 12 12 12 12 12 12 12 12 11 11 11 11 11 11 11 11 11 11 11 11 10 10 10 10 10 10 10 9 9 9 9
15 15 15 15 15 15 15 15 14 14 13 13 13 12 12 12 12 12 12 12 12 11 11 11 11 11 11 11 11 11 10 10 10 10 10 10 10 10 9 9 9 9 9
14 14 15 15 15 15 15 15 14 14 14 13 13 13 12 12 12 12 12 12 12 11 11 11 11 11 11 11 11 11 11 10 10 10 10 10 10 9 9 9 9 9 9
13 13 14 14 14 14 15 15 15 14 14 14 13 13 13 13 13 12 12 12 12 12 11 11 11 11 11 11 11 11 11 10 10 10 10 10 10 9 9 9 9 9 8
11 12 12 13 13 13 14 14 14 14 14 14 14 13 13 13 13 13 12 12 12 12 12 12 11 11 11 11 11 11 11 10 10 10 10 10 9 9 9 9 9 8 8
9 10 10 11 11 12 12 13 13 14 14 14 14 14 13 13 13 13 13 12 12 12 12 12 12 12 11 11 11 11 11 11 10 10 10 10 10 9 9 9 9 8 8

GEFSGL_850_meantemp_072.txt.gz
Temperature
12 11 11 11 10 10 10 10 10 10 11 11 11 11 11 11 12 12 12 12 13 13 13 13 14 14 14 14 14 15 15 15 15 15 15 16 16 16 17 17 17 17 16
12 11 11 11 10 10 10 10 10 10 10 10 11 11 11 11 11 11 12 12 12 13 13 13 13 14 14 14 14 14 14 14 14 15 15 15 15 16 16 16 16 16 16
12 11 11 11 10 10 10 10 10 10 10 10 10 11 11 11 11 11 11 12 12 12 12 13 13 13 13 14 14 14 14 14 14 14 14 15 15 15 15 15 15 15 15
12 11 11 11 10 10 10 10 10 10 10 10 10 10 11 11 11 11 11 11 12 12 12 12 13 13 13 13 14 14 14 14 14 14 14 14 14 14 15 15 15 15 15
12 11 11 11 10 10 10 10 10 10 10 10 10 10 11 11 11 11 11 11 11 12 12 12 13 13 13 13 13 14 13 13 14 14 14 14 14 14 14 14 14 14 14
12 12 11 11 10 10 10 10 10 10 10 10 10 10 10 10 11 11 11 11 11 12 12 12 12 13 13 13 13 13 13 13 13 13 13 13 13 14 14 14 14 13 13
12 12 11 11 10 10 10 10 10 10 10 10 10 10 10 10 11 11 11 11 11 11 12 12 12 12 13 13 13 13 13 13 13 13 13 13 13 13 13 13 13 13 13
12 12 11 11 11 10 10 10 10 10 10 10 10 10 10 10 10 11 11 11 11 11 11 11 12 12 12 13 13 13 13 13 13 13 13 13 13 13 13 13 13 13 12
13 12 12 11 11 11 10 10 10 10 10 10 10 10 10 10 10 11 11 11 11 11 11 11 12 12 12 12 12 13 13 13 13 13 13 13 13 13 13 13 13 12 12
13 13 12 12 11 11 11 11 10 10 10 10 10 10 10 10 10 11 11 11 11 11 11 11 11 12 12 12 12 12 13 13 13 13 13 13 13 13 13 13 13 12 12
14 13 13 12 12 12 11 11 11 11 10 10 10 10 10 10 10 11 11 11 11 11 11 11 11 12 12 12 12 12 12 13 13 13 13 12 12 12 12 12 12 12 12
14 14 13 13 12 12 12 12 11 11 11 10 10 10 10 10 10 11 11 11 11 11 11 11 11 12 12 12 12 12 12 12 12 12 12 12 12 12 12 12 12 12 12
14 14 14 13 13 13 12 12 11 11 11 11 11 10 10 10 10 11 11 11 11 11 11 11 11 11 12 12 12 12 12 12 12 12 12 12 12 12 12 12 12 11 11
15 14 14 14 13 13 13 12 12 11 11 11 11 11 11 10 10 10 11 11 11 11 11 11 11 11 11 11 11 12 11 12 12 12 11 11 11 11 11 11 11 11 11
15 14 14 14 14 13 13 13 13 12 12 11 11 11 11 11 11 11 11 11 11 11 11 11 11 11 11 11 11 11 11 11 11 11 11 11 11 11 11 11 11 11 11
14 14 14 14 14 14 13 13 13 13 13 12 12 12 11 11 11 11 11 11 11 11 11 11 11 11 11 11 11 11 11 11 11 11 11 11 11 11 11 11 11 11 11
14 14 14 14 13 13 13 13 13 13 13 13 13 12 12 12 12 11 11 11 11 11 11 11 11 11 11 11 11 11 11 11 11 11 11 11 11 11 11 11 11 11 11
13 13 13 13 13 13 13 13 13 13 13 13 13 13 12 12 12 12 12 11 11 11 11 11 11 11 11 11 11 11 11 11 11 11 11 11 11 11 11 10 10 10 10
12 12 13 13 13 13 13 13 13 13 13 13 13 13 13 13 12 12 12 12 11 11 11 11 11 11 11 11 11 11 11 11 11 11 11 11 11 11 10 10 10 10 10
11 11 12 12 12 12 12 12 12 12 12 13 13 13 13 13 12 12 12 12 12 12 11 11 11 11 11 11 11 11 11 11 11 11 11 11 11 11 10 10 10 10 10
9 10 10 10 10 10 11 11 11 12 12 12 12 13 13 12 12 12 12 12 12 12 12 11 11 11 11 11 11 11 11 11 11 11 11 11 11 10 10 10 10 10 10
8 8 8 8 9 9 9 10 10 11 11 11 12 12 12 12 12 12 12 12 12 12 12 12 12 12 12 11 11 11 11 11 11 11 11 11 10 10 10 10 10 10 10
7 7 7 7 7 8 8 8 9 9 10 10 11 11 11 12 12 12 12 12 12 12 12 12 12 12 12 12 11 11 11 11 11 11 10 10 10 10 10 10 10 10 9
6 6 6 6 6 6 6 7 7 7 8 9 9 10 10 11 11 11 12 12 12 12 12 12 12 12 12 12 12 12 11 11 11 11 10 10 10 10 10 10 10 9 9
5 5 5 5 5 5 5 6 6 6 6 7 8 8 9 9 10 10 11 11 11 11 12 12 12 12 12 12 12 12 12 11 11 11 10 10 10 10 10 10 9 9 9
4 4 4 4 4 4 4 4 5 5 5 5 6 6 7 8 9 9 10 10 11 11 11 11 12 12 12 12 12 12 12 12 11 11 10 10 10 10 10 9 9 9 9

GEFSGL_850_meantemp_078.txt.gz
Temperature
14 13 13 12 12 12 12 11 11 11 11 11 11 11 12 12 12 12 12 12 13 13 13 13 14 14 14 15 15 15 15 15 15 16 16 16 16 16 16 17 17 17 17
14 13 13 13 12 12 12 12 11 11 11 11 11 11 11 11 11 12 12 12 12 13 13 13 13 13 14 14 14 14 15 15 15 15 15 16 16 16 16 16 16 16 16
14 13 13 13 12 12 12 12 11 11 11 11 11 11 11 11 11 11 12 12 12 12 13 13 13 13 13 14 14 14 14 14 14 14 15 15 15 15 16 16 16 16 16
14 14 13 13 13 12 12 11 11 11 11 11 11 11 11 11 11 11 12 12 12 12 12 13 13 13 13 13 14 14 14 14 14 14 14 14 15 15 15 15 15 15 15
15 14 14 13 13 12 12 11 11 11 11 11 11 11 11 11 11 11 12 12 12 12 12 12 12 13 13 13 13 14 14 14 14 14 14 14 14 14 15 15 15 15 15
15 15 14 13 13 12 12 12 11 11 11 11 11 11 11 11 11 11 11 11 12 12 12 12 12 12 13 13 13 13 13 13 14 14 14 14 14 14 14 14 14 14 14
15 15 14 14 13 13 12 12 12 11 11 11 11 11 11 11 11 11 11 11 11 12 12 12 12 12 12 12 13 13 13 13 13 13 14 14 14 14 14 14 14 14 14
16 15 14 14 13 13 13 12 12 12 11 11 11 11 11 11 11 11 11 11 11 11 11 12 12 12 12 12 12 13 13 13 13 13 13 14 14 14 14 14 14 14 14
16 15 15 14 14 13 13 13 12 12 12 12 12 11 11 11 11 11 11 11 11 11 11 11 12 12 12 12 12 12 13 13 13 13 13 13 14 14 14 13 13 13 13
16 16 15 15 14 14 13 13 13 12 12 12 12 12 12 11 11 11 11 11 11 11 11 11 11 12 12 12 12 12 12 13 13 13 13 13 13 13 13 13 13 13 13
16 16 15 15 14 14 14 13 13 13 12 12 12 12 12 12 12 12 12 11 11 11 11 11 11 11 12 12 12 12 12 13 13 13 13 13 13 13 13 13 13 13 13
15 15 15 15 14 14 14 14 13 13 13 13 12 12 12 12 12 12 12 12 11 11 11 11 11 12 12 12 12 12 12 12 12 12 12 12 13 13 13 13 13 13 13
15 15 14 14 14 14 14 14 14 13 13 13 13 12 12 12 12 12 12 12 11 11 11 11 12 12 12 12 12 12 12 12 12 12 12 12 12 12 12 12 12 12 12
14 14 14 14 14 15 14 14 14 14 13 13 13 13 13 12 12 12 12 12 12 12 12 12 12 12 12 12 12 12 12 12 12 12 12 12 12 12 12 12 12 12 12
13 13 14 14 14 14 14 14 14 14 14 13 13 13 13 13 13 12 12 12 12 12 12 12 12 12 12 12 12 12 12 12 12 12 12 12 12 12 12 12 11 11 11
12 12 13 13 13 13 13 13 14 13 14 13 13 13 13 13 13 13 13 12 12 12 12 12 12 12 12 12 12 12 12 11 11 11 11 11 11 11 11 11 11 11 11
11 11 12 12 12 12 12 12 12 13 13 13 13 13 13 13 13 13 13 13 12 12 12 12 12 12 12 12 12 12 11 11 11 11 11 11 11 11 11 11 11 11 11
10 10 11 11 11 11 11 11 11 12 12 12 13 13 13 13 13 13 13 13 13 12 12 12 12 12 12 12 12 12 11 11 11 11 11 11 11 11 11 11 11 11 11
9 9 9 10 10 10 10 10 10 11 11 11 12 12 12 12 12 12 12 12 12 12 12 12 12 12 12 12 12 12 11 11 11 11 11 11 11 11 11 11 11 11 11
8 8 8 8 9 9 9 9 9 10 10 10 10 10 11 11 11 11 11 12 12 12 12 12 12 12 12 12 12 12 12 11 11 11 11 11 11 11 11 11 11 11 11
7 7 8 8 8 8 8 8 8 9 9 9 9 9 10 10 10 10 11 11 11 11 11 11 12 12 12 12 12 12 12 12 11 11 11 11 11 11 11 11 11 11 11
7 7 7 7 7 7 7 7 7 8 8 8 8 8 9 9 9 9 9 10 10 10 10 10 11 11 11 11 12 12 12 12 12 11 11 11 11 11 11 11 11 11 11
6 6 6 6 6 6 6 7 7 7 7 7 7 7 7 7 7 8 8 8 9 9 9 10 10 10 11 11 11 11 11 11 11 11 11 11 11 11 11 11 11 11 11
6 6 6 6 6 6 6 6 6 6 6 6 6 6 6 6 6 6 7 7 7 8 8 8 9 9 10 10 10 10 11 11 11 11 11 11 11 11 11 11 11 11 11
5 5 5 5 5 5 5 5 5 5 5 5 5 5 5 5 5 5 6 6 6 6 7 7 7 8 8 9 9 9 10 10 10 10 11 11 11 11 11 11 11 11 11
5 5 5 5 5 5 5 4 4 4 4 4 4 4 4 4 4 4 4 5 5 5 5 6 6 6 7 7 8 8 9 9 10 10 10 10 10 10 10 10 10 10 10

GEFSGL_850_meantemp_084.txt.gz
Temperature
14 14 13 13 13 13 12 12 12 12 11 11 11 11 11 11 11 12 12 12 12 12 12 12 13 13 13 13 14 14 14 14 14 15 15 15 15 16 16 16 16 16 16
15 14 14 13 13 13 13 12 12 12 11 11 11 11 11 11 11 11 12 12 12 12 12 12 12 13 13 13 13 13 14 14 14 14 15 15 15 15 15 16 16 16 16
15 14 14 14 13 13 13 13 12 12 12 12 11 11 11 11 11 11 11 12 12 12 12 12 12 12 13 13 13 13 13 13 14 14 14 14 15 15 15 15 15 15 16
15 15 15 14 14 14 13 13 13 12 12 12 12 12 11 11 11 11 11 12 12 12 12 12 12 12 12 13 13 13 13 13 13 13 14 14 14 14 14 15 15 15 15
16 15 15 15 14 14 14 13 13 13 12 12 12 12 12 12 11 11 11 11 12 12 12 12 12 12 12 12 12 13 13 13 13 13 13 14 14 14 14 14 14 15 15
16 16 15 15 14 14 14 13 13 13 13 12 12 12 12 12 12 11 11 11 12 12 12 12 12 12 12 12 12 12 12 13 13 13 13 13 14 14 14 14 14 14 14
16 16 15 15 15 14 14 14 13 13 13 13 12 12 12 12 12 12 11 11 11 11 12 12 12 12 12 12 12 12 12 12 13 13 13 13 14 14 14 14 14 14 14
16 16 15 15 15 14 14 14 14 13 13 13 13 12 12 12 12 12 11 11 11 11 11 12 12 12 12 12 12 12 12 12 12 13 13 13 13 13 13 14 14 13 14
16 16 15 15 15 15 14 14 14 13 13 13 13 13 12 12 12 12 12 12 12 12 11 11 12 12 12 11 12 12 12 12 12 12 13 13 13 13 13 13 13 13 13
16 16 15 15 15 15 14 14 14 14 13 13 13 13 13 12 12 12 12 12 12 12 12 11 12 12 12 11 11 11 12 12 12 12 13 13 13 13 13 13 13 13 12
15 15 15 15 14 14 14 14 14 14 14 13 13 13 13 13 12 12 12 12 12 12 12 12 12 12 12 12 11 11 12 12 12 12 12 12 12 13 13 13 13 13 12
15 15 14 14 14 14 14 14 13 13 13 13 13 13 13 13 12 12 12 12 12 12 12 12 12 12 12 12 12 12 12 12 12 12 12 12 12 12 12 12 12 12 12
14 14 14 13 13 13 13 13 13 13 13 13 13 13 13 13 13 12 12 12 12 12 12 12 12 12 12 12 12 12 12 12 12 11 12 12 12 12 12 12 12 12 12
14 13 13 13 13 13 12 12 12 12 12 12 12 12 12 12 12 12 12 12 12 12 12 12 12 12 12 12 12 12 12 11 11 11 11 11 12 12 12 12 12 12 12
13 12 12 12 12 12 12 11 11 11 11 11 11 11 12 12 12 12 12 12 12 12 12 12 12 12 12 12 12 12 12 11 11 11 11 11 11 11 11 11 11 12 11
12 12 11 11 11 11 11 11 11 11 11 11 11 11 11 11 11 12 12 12 12 12 11 11 11 11 11 11 11 11 11 11 11 11 11 11 11 11 11 11 11 11 11
11 10 10 10 10 10 10 10 10 10 10 10 10 10 10 11 11 11 11 11 11 11 11 11 10 10 10 10 11 11 11 11 11 11 11 11 11 11 11 11 11 11 11
10 9 9 9 9 9 9 9 9 9 9 10 10 10 10 10 10 10 10 10 10 10 10 9 9 10 10 10 10 10 10 11 11 11 11 11 11 11 11 11 11 11 11
9 8 8 8 8 8 8 8 8 8 8 8 9 9 9 9 9 9 9 9 9 9 9 8 9 9 9 9 9 10 10 10 10 10 11 11 11 11 11 11 11 11 11
8 8 8 7 7 7 7 7 7 7 7 7 7 7 7 8 8 8 8 7 7 7 7 7 8 8 8 8 8 9 9 9 10 10 10 10 10 10 11 11 11 11 11
8 7 7 7 7 7 7 6 6 6 6 6 6 6 6 6 6 6 6 6 6 6 6 6 6 7 7 7 7 8 8 8 9 9 9 9 10 10 10 10 10 10 10
7 7 7 7 6 6 6 6 6 6 6 5 5 5 5 5 5 5 5 5 5 5 5 5 5 5 6 6 6 6 7 7 7 8 8 9 9 9 10 10 10 10 10
7 6 6 6 6 6 5 5 5 5 5 5 5 5 5 4 4 4 4 4 4 4 4 4 4 4 4 5 5 5 5 5 6 6 6 7 8 8 9 9 9 10 10
6 6 6 5 5 5 5 5 4 4 4 4 4 4 4 4 4 3 3 4 4 4 4 3 3 3 4 4 4 4 4 4 5 5 5 6 6 7 8 8 9 9 10
6 5 5 5 5 5 4 4 4 4 4 3 3 3 3 3 3 3 3 3 3 3 3 3 3 3 3 3 3 3 3 3 4 4 5 5 5 6 6 7 8 8 9
5 5 5 4 4 4 4 4 3 3 3 3 3 3 2 2 2 2 2 2 2 2 2 2 2 2 2 2 2 3 3 3 3 3 3 4 5 5 6 6 7 7 8

GEFSGL_850_meantemp_090.txt.gz
Temperature
14 14 14 13 13 13 12 12 12 12 12 12 11 11 11 11 11 11 11 11 11 11 12 12 12 12 12 12 12 13 13 13 13 14 14 14 15 15 15 16 16 16 16
14 14 14 14 13 13 13 13 12 12 12 12 12 12 11 11 11 11 11 11 11 11 11 12 12 12 12 12 12 12 13 13 13 13 14 14 14 15 15 15 15 16 16
15 14 14 14 14 13 13 13 13 13 12 12 12 12 12 12 11 11 11 11 11 11 11 12 12 12 12 12 12 12 12 12 12 13 13 14 14 14 14 15 15 15 15
15 15 14 14 14 14 14 13 13 13 13 12 12 12 12 12 12 11 11 11 11 11 11 11 11 11 12 12 12 12 12 12 12 12 12 13 13 14 14 14 15 15 15
15 15 15 14 14 14 14 13 13 13 13 13 12 12 12 12 12 12 12 11 11 11 11 11 11 11 11 12 12 12 12 12 12 12 12 12 13 13 13 14 14 14 15
16 15 15 15 14 14 14 14 13 13 13 13 13 12 12 12 12 12 12 12 11 11 11 11 11 11 11 11 11 11 12 12 12 12 12 12 12 13 13 13 13 13 14
16 16 15 15 15 14 14 14 14 13 13 13 13 13 12 12 12 12 12 12 12 12 11 11 11 11 11 11 11 11 11 11 12 12 12 12 12 12 12 13 13 13 13
16 16 15 15 15 14 14 14 14 14 13 13 13 13 13 12 12 12 12 12 12 12 12 11 11 11 11 11 11 12 12 12 12 12 12 12 12 12 12 12 12 12 13
16 16 15 15 15 14 14 14 14 13 13 13 13 13 13 13 12 12 12 12 12 12 12 11 11 12 11 11 11 12 12 12 12 11 12 12 12 12 12 12 12 12 12
16 16 15 15 14 14 14 13 13 13 13 13 13 13 13 13 12 12 12 12 12 12 12 12 11 11 11 11 11 11 12 12 12 12 12 12 12 12 12 12 12 12 12
16 15 15 14 14 14 13 13 13 13 13 13 13 13 12 12 12 12 12 12 12 12 12 12 11 11 11 11 11 11 11 11 11 12 12 12 12 12 12 12 12 11 11
15 15 14 14 13 13 13 13 12 12 12 12 12 12 12 12 12 12 12 12 12 12 12 11 11 11 11 11 11 11 11 11 11 11 11 12 12 12 12 12 11 11 11
15 14 14 13 13 13 12 12 12 12 12 12 12 12 12 12 12 12 12 11 11 11 11 11 11 11 11 11 11 11 11 11 11 11 11 11 11 11 11 11 11 11 11
14 14 13 13 12 12 11 11 11 11 11 11 11 11 11 11 11 11 11 11 11 11 11 11 11 11 11 11 11 11 11 10 10 10 11 11 11 11 11 11 11 11 11
14 13 12 12 11 11 11 10 10 10 10 10 10 10 10 10 10 10 10 10 10 11 10 11 11 11 11 11 11 11 10 10 10 10 10 10 11 11 11 11 11 11 11
13 12 12 11 10 10 10 9 9 9 9 9 9 9 9 9 9 9 10 10 10 10 10 10 10 10 10 10 10 10 10 10 10 10 10 10 10 10 10 10 10 10 10
12 12 11 10 10 9 9 9 8 8 8 8 8 8 8 8 9 9 9 9 9 9 9 9 9 8 8 8 9 9 9 9 9 9 9 9 9 9 10 10 10 10 10
11 11 10 10 9 8 8 8 8 8 8 8 8 8 8 8 8 8 8 8 8 8 8 8 8 7 7 7 7 8 8 8 8 8 8 8 8 9 9 9 9 9 10
11 10 9 9 8 8 7 7 7 7 7 7 7 7 7 7 7 7 7 7 7 7 7 6 6 6 6 6 6 6 7 7 7 7 7 7 8 8 8 8 8 9 9
9 9 8 8 8 7 7 7 7 7 7 6 6 6 6 6 6 6 6 6 6 6 5 5 5 5 5 5 5 5 6 6 6 6 6 6 6 6 7 7 7 8 8
9 8 8 7 7 7 7 6 6 6 6 6 5 5 5 5 5 5 5 5 5 5 4 4 4 4 4 4 4 4 5 5 5 5 5 5 5 5 6 6 6 7 7
8 8 7 7 7 6 6 6 6 5 5 5 5 5 4 4 4 4 4 4 4 4 4 4 4 4 4 4 3 3 4 4 4 4 4 4 4 4 4 5 5 5 6
7 7 7 6 6 6 5 5 5 5 5 4 4 4 4 4 4 4 4 3 3 3 3 3 3 3 3 3 3 3 2 2 2 2 2 3 3 3 3 4 4 4 5
7 6 6 6 5 5 5 5 5 4 4 4 4 3 3 3 3 3 3 3 3 3 3 3 3 3 2 2 2 2 2 2 2 1 2 2 2 2 2 3 3 3 4
6 6 6 5 5 5 5 4 4 4 4 3 3 3 3 3 3 3 3 3 2 2 2 2 2 2 2 2 2 1 1 1 1 1 1 1 1 1 1 2 2 2 3
6 5 5 5 5 4 4 4 4 4 3 3 3 3 3 2 2 2 2 2 2 2 2 2 1 1 1 1 1 1 1 1 1 0 0 0 0 1 1 1 1 1 2

GEFSGL_850_meantemp_096.txt.gz
Temperature
14 14 14 13 13 13 13 13 12 12 12 12 12 12 12 12 12 12 12 11 11 12 12 12 12 12 12 12 12 12 13 13 13 14 14 14 14 14 15 15 15 15 16
15 14 14 14 14 13 13 13 13 12 12 12 12 12 12 12 12 12 12 11 11 12 12 12 12 12 12 12 12 12 12 13 13 13 13 13 14 14 14 14 15 15 15
15 15 14 14 14 14 13 13 13 13 13 12 12 12 12 12 12 12 12 12 12 12 12 12 12 12 12 12 12 12 12 12 12 12 13 13 13 13 14 14 14 15 15
15 15 15 14 14 14 14 14 13 13 13 13 12 12 12 12 12 12 12 12 12 12 12 12 11 11 11 12 12 12 12 12 12 12 12 13 13 13 13 13 14 14 14
15 15 15 15 14 14 14 14 13 13 13 13 13 12 12 12 12 12 12 12 12 12 12 12 11 12 12 12 12 12 12 12 12 12 12 12 13 13 13 13 13 14 14
16 15 15 15 15 14 14 14 13 13 13 13 13 12 12 12 13 13 12 12 12 12 12 12 12 12 12 12 12 12 12 12 12 12 12 12 12 12 13 13 13 13 13
16 16 15 15 15 14 14 14 14 13 13 13 13 13 12 12 13 13 13 12 12 12 12 12 12 12 12 12 12 12 12 12 12 12 12 12 12 12 12 12 12 13 13
16 16 15 15 15 15 14 14 14 13 13 13 13 13 13 13 13 13 13 12 12 12 12 12 12 12 12 12 12 12 12 12 12 12 12 12 12 12 12 12 12 12 13
16 16 15 15 15 15 14 14 13 13 13 13 12 12 12 12 13 13 13 12 12 12 12 12 12 12 12 12 12 12 12 12 12 12 12 12 12 12 12 12 12 12 12
16 16 15 15 15 15 14 14 13 13 13 12 12 12 12 12 12 12 12 12 12 12 11 11 12 12 12 12 12 11 11 11 11 11 12 12 12 12 12 12 12 12 12
16 16 15 15 15 14 14 13 13 13 12 12 12 12 12 12 12 12 12 12 11 11 11 11 11 12 12 12 12 11 11 11 11 11 11 11 11 11 11 11 11 11 11
16 16 15 15 14 14 14 13 13 12 12 11 11 11 11 11 11 11 11 11 11 11 11 11 11 11 11 11 11 11 11 11 11 11 11 11 11 11 11 11 11 11 11
16 16 15 14 14 14 13 12 12 12 11 11 11 11 11 10 11 11 11 11 11 11 11 11 11 11 11 11 11 11 11 11 10 11 11 11 11 11 11 11 11 11 11
16 15 14 14 13 13 12 12 11 11 10 10 10 10 10 10 10 10 10 10 10 10 10 10 10 10 10 10 10 10 10 10 10 10 10 10 10 10 11 11 11 11 11
15 15 14 13 13 12 12 11 11 11 11 10 10 9 9 9 10 10 10 10 10 9 9 9 9 9 9 9 9 9 9 9 9 9 9 9 9 10 10 10 10 10 10
14 14 14 13 13 12 11 11 10 10 10 10 10 9 9 9 9 9 9 9 9 9 9 8 8 8 8 8 8 8 8 8 8 8 8 8 8 8 9 9 9 9 9
14 14 13 13 12 11 10 10 9 9 9 9 9 9 9 9 9 9 9 8 8 8 8 7 7 7 7 7 7 7 7 7 7 7 7 7 7 7 7 8 8 8 8
14 13 13 13 12 10 10 9 8 8 8 8 8 8 8 8 8 8 8 7 7 7 7 7 6 6 6 6 6 6 6 6 6 6 6 6 6 6 6 6 7 7 7
13 13 12 12 11 10 9 8 8 8 7 7 7 7 7 7 7 7 7 6 6 6 6 6 6 6 5 5 5 5 5 5 5 5 5 5 5 5 5 5 5 5 6
13 12 12 11 10 9 8 8 7 7 7 7 6 6 6 6 6 6 6 6 5 5 5 5 5 5 5 5 5 4 4 4 4 4 4 4 4 4 4 4 4 4 5
12 12 11 10 9 8 8 7 7 7 6 6 6 6 6 5 5 5 5 5 5 5 4 4 4 4 4 4 4 4 3 3 3 3 3 3 3 3 3 3 3 3 4
11 11 10 9 8 8 7 7 7 6 6 6 5 5 5 5 4 4 4 4 4 4 4 4 4 3 3 3 3 2 2 2 2 2 2 2 2 2 2 2 2 2 3
10 10 9 8 8 7 7 6 6 6 5 5 5 4 4 4 4 4 4 4 3 3 3 3 3 3 2 2 2 2 1 1 1 1 1 1 1 1 1 1 1 1 2
9 9 8 7 7 7 6 6 6 5 5 5 4 4 4 4 3 3 3 3 3 3 3 2 2 2 2 2 1 1 1 1 1 1 0 0 0 0 0 0 1 1 1
8 8 7 7 6 6 6 5 5 5 5 4 4 4 3 3 3 3 3 3 2 2 2 2 2 2 1 1 1 1 1 1 1 0 -0 -0 -0 -0 -0 -0 -0 -0 0
7 7 7 6 6 5 5 5 5 4 4 4 3 3 3 3 3 2 2 2 2 2 2 2 1 1 1 1 0 1 1 1 0 0 -0 -1 -1 -1 -1 -1 -1 -1 -1

GEFSGL_850_meantemp_102.txt.gz
Temperature
16 15 15 15 15 14 14 14 14 14 14 14 14 14 13 13 13 13 13 13 13 13 13 13 13 13 13 13 13 13 13 13 14 14 14 14 15 15 15 15 15 15 16
16 15 15 15 15 15 14 14 14 14 14 14 14 14 14 13 13 13 13 13 13 13 13 13 13 13 13 13 13 13 13 13 13 14 14 14 14 14 14 15 15 15 15
16 15 15 15 15 15 15 14 14 14 14 14 14 14 14 13 13 13 13 13 13 13 13 13 13 13 12 12 13 13 13 13 13 13 13 14 14 14 14 14 14 14 15
16 16 15 15 15 15 15 15 14 14 14 14 14 14 14 13 13 13 13 13 13 13 13 13 13 13 13 12 12 12 13 13 13 13 13 13 13 13 13 14 14 14 14
16 16 16 16 15 15 15 15 14 14 14 14 14 14 13 13 13 13 13 13 13 13 13 13 13 13 13 13 13 13 13 13 13 13 13 13 13 13 13 13 13 14 14
17 16 16 16 15 15 15 15 14 14 14 14 14 13 13 13 13 13 13 13 13 13 13 13 13 13 13 13 13 13 13 13 12 12 12 12 13 13 13 13 13 13 13
17 16 16 16 15 15 15 15 14 14 14 14 13 13 13 13 13 13 13 13 13 13 13 13 13 13 13 13 13 13 13 12 12 12 12 12 12 12 12 13 13 13 13
17 17 16 16 15 15 15 15 14 14 14 13 13 13 13 13 13 13 13 13 13 13 13 13 13 12 13 13 12 12 12 12 12 12 12 12 12 12 12 12 12 12 13
17 17 16 16 16 15 15 15 14 14 14 13 13 13 13 13 13 13 13 13 13 13 12 12 12 12 12 12 12 12 12 12 12 12 12 12 12 12 12 12 12 12 12
17 17 16 16 16 15 15 15 14 14 14 13 13 13 12 12 12 12 12 12 12 12 12 12 12 12 12 12 12 12 12 12 12 12 12 12 12 12 12 12 12 12 12
17 17 17 16 16 16 15 15 14 14 13 13 12 12 12 12 12 12 12 12 12 12 12 12 12 12 12 12 12 11 11 11 11 11 11 11 11 12 11 11 11 11 11
18 17 17 16 16 15 15 14 14 13 13 12 12 12 12 12 12 12 12 12 12 11 11 11 11 11 11 11 11 11 11 11 11 11 11 11 11 11 11 11 11 11 11
18 17 16 16 15 15 15 14 14 13 13 12 12 12 11 11 11 11 11 11 11 11 11 10 10 10 10 11 11 10 10 10 10 10 10 10 10 10 10 11 11 11 11
18 17 16 16 15 15 14 14 13 13 12 12 12 11 11 11 11 11 11 11 10 10 10 10 10 10 10 9 9 10 10 9 9 9 9 9 9 10 10 10 10 10 10
17 17 16 15 15 15 14 14 13 13 13 12 12 11 11 11 11 11 11 11 10 10 10 9 9 9 9 9 9 9 9 9 9 9 9 9 9 9 9 9 9 9 9
16 16 15 15 15 15 14 14 13 13 12 12 12 11 11 11 11 11 11 10 10 10 9 9 9 8 8 8 8 8 8 8 8 8 8 8 8 8 8 8 8 7 7
16 16 16 15 15 14 14 14 13 12 12 12 11 11 11 11 10 10 10 10 9 9 9 8 8 8 8 7 7 7 7 7 7 7 7 7 7 7 7 6 6 6 6
16 16 16 15 15 14 14 13 13 13 12 11 11 10 10 10 10 10 9 9 9 8 8 8 7 7 7 7 7 7 6 6 6 6 6 6 6 6 5 5 5 5 5
16 16 15 15 14 14 13 13 12 12 11 11 10 10 9 9 9 9 8 8 8 8 7 7 7 7 7 6 6 6 6 6 5 5 5 5 5 5 5 4 4 4 4
15 15 15 15 14 13 12 12 11 11 10 10 10 9 9 9 8 8 8 7 7 7 7 7 6 6 6 6 6 5 5 5 5 4 4 4 4 4 4 4 3 3 3
15 15 14 14 13 13 12 12 11 10 10 9 9 9 8 8 8 7 7 7 7 6 6 6 6 6 5 5 5 5 4 4 4 4 3 3 3 3 3 3 3 2 2
14 14 14 13 13 12 12 11 10 10 9 9 8 8 8 7 7 7 7 6 6 6 6 5 5 5 5 4 4 4 4 3 3 3 3 3 3 2 2 2 2 2 2
13 13 13 12 12 11 11 10 10 9 9 9 8 8 7 7 7 6 6 6 5 5 5 5 5 4 4 4 3 3 3 3 2 2 2 2 2 2 2 1 1 1 1
12 12 12 11 11 11 10 10 9 9 8 8 8 7 7 6 6 6 5 5 5 5 4 4 4 4 3 3 3 3 2 2 2 2 2 1 1 1 1 1 0 0 0
11 10 10 10 10 10 10 9 9 8 8 8 7 7 6 6 6 5 5 5 4 4 4 4 3 3 3 3 2 2 2 2 2 2 1 1 1 1 1 0 0 -0 -0
9 9 9 9 9 9 9 8 8 8 7 7 7 6 6 6 5 5 5 4 4 4 3 3 3 3 2 2 2 2 2 2 2 2 1 1 1 1 0 -0 -0 -1 -1

GEFSGL_850_meantemp_108.txt.gz
Temperature
16 16 15 15 15 14 14 14 14 14 14 14 14 14 13 13 13 13 13 13 13 13 13 13 13 13 13 13 13 13 13 13 13 14 14 14 14 14 15 15 15 15 15
17 16 16 15 15 15 14 14 14 14 14 14 14 14 14 13 13 13 13 13 13 13 13 13 13 13 13 13 13 13 13 13 13 13 14 14 14 14 14 14 15 15 15
17 16 16 15 15 15 15 14 14 14 14 14 14 14 14 13 13 13 13 13 13 13 13 13 13 13 13 13 13 13 13 13 13 13 13 13 13 14 14 14 14 14 14
17 16 16 16 15 15 15 15 14 14 14 14 14 14 14 14 13 13 13 13 13 13 13 13 13 13 13 13 13 12 12 13 13 13 13 13 13 13 13 13 14 14 14
17 17 16 16 16 15 15 15 15 14 14 14 14 14 14 13 13 13 13 13 13 13 13 13 13 13 13 13 13 13 12 13 13 13 13 13 13 13 13 13 13 13 14
17 17 17 16 16 15 15 15 15 15 14 14 14 14 14 13 13 13 13 13 13 13 13 13 13 13 13 13 12 12 12 12 12 12 12 12 13 12 13 13 13 13 13
18 17 17 16 16 16 15 15 15 15 14 14 14 14 14 13 13 13 13 13 13 13 13 13 13 13 12 12 12 12 12 12 12 12 12 12 12 12 12 12 12 12 13
18 17 17 17 16 16 15 15 15 15 14 14 14 14 13 13 13 13 13 13 13 13 12 12 12 12 12 12 12 12 12 12 12 12 12 12 12 12 12 12 12 12 12
18 18 17 17 16 16 16 15 15 15 14 14 14 14 13 13 13 13 13 12 12 12 12 12 12 12 12 12 12 12 12 12 12 12 11 11 11 12 12 12 12 12 12
18 18 18 17 17 16 16 16 15 15 14 14 14 14 13 13 13 13 12 12 12 12 12 12 12 12 12 12 12 12 12 12 11 11 11 11 11 11 11 11 11 11 11
18 18 17 17 17 16 16 16 15 15 14 14 14 13 13 13 13 12 12 12 12 12 12 11 11 11 11 11 11 11 11 11 11 11 11 11 11 11 11 11 11 11 11
18 18 17 17 17 17 16 16 15 15 14 14 13 13 13 12 12 12 12 12 12 12 11 11 11 11 11 11 11 11 11 11 11 11 11 11 11 11 11 10 10 10 10
17 17 17 17 17 17 16 16 15 15 14 14 13 13 13 12 12 12 12 12 11 11 11 11 11 10 10 10 10 10 10 10 10 10 10 10 10 10 10 10 10 10 10
17 17 17 17 17 16 16 16 15 15 14 14 13 13 13 13 12 12 11 11 11 11 11 10 10 10 10 10 10 10 10 10 9 9 9 9 9 9 9 9 9 9 9
17 17 16 16 16 16 16 16 15 15 15 14 14 14 13 13 12 12 11 11 11 11 10 10 10 9 9 9 9 9 9 9 9 9 9 9 9 9 9 9 9 9 9
16 16 16 16 16 16 16 15 15 14 14 14 13 13 13 12 12 11 11 11 10 10 10 10 9 9 9 9 9 8 8 8 8 8 8 8 8 8 8 8 8 8 8
15 15 15 15 15 15 15 15 15 14 14 13 13 13 12 12 11 11 11 10 10 10 10 9 9 9 9 8 8 8 8 8 8 8 7 7 7 7 7 7 7 7 7
14 14 14 15 15 15 15 15 15 15 14 14 13 13 12 11 11 11 10 10 10 10 9 9 9 9 8 8 8 8 7 7 7 7 7 7 7 6 6 6 6 6 6
13 14 14 14 14 14 15 15 14 14 14 13 13 12 12 11 10 10 10 10 10 10 9 9 8 8 8 8 7 7 7 7 7 6 6 6 6 6 5 5 5 5 5
13 13 13 13 13 13 14 14 14 14 13 13 13 12 12 11 10 10 10 10 9 9 9 8 8 8 7 7 7 7 7 6 6 6 6 5 5 5 5 5 4 4 4
12 12 12 12 13 13 13 13 13 13 13 13 13 12 12 11 11 10 10 9 9 9 8 8 8 7 7 7 7 6 6 6 6 5 5 5 4 4 4 4 4 4 3
11 11 11 12 12 12 12 12 13 13 13 13 12 11 11 10 10 10 9 9 8 8 8 7 7 7 7 6 6 6 6 5 5 4 4 4 4 4 4 4 3 3 3
10 11 11 11 11 12 12 12 12 12 12 12 12 11 11 10 10 9 9 8 8 7 7 7 6 6 6 6 6 5 5 5 4 4 4 4 3 3 3 3 3 3 2
10 10 10 10 11 11 11 11 11 11 11 11 11 11 10 10 9 9 8 8 7 7 7 6 6 6 6 5 5 5 4 4 4 3 3 3 3 3 3 3 3 2 2
9 9 9 10 10 10 10 10 10 11 11 10 10 10 10 9 9 8 8 7 7 6 6 6 5 5 5 5 4 4 4 3 3 3 3 3 3 3 2 2 2 2 1
8 8 9 9 9 9 10 10 10 10 10 10 10 9 9 9 8 8 7 7 6 6 5 5 5 5 4 4 4 4 3 3 3 3 3 3 3 2 2 2 2 1 1

GEFSGL_850_meantemp_114.txt.gz
Temperature
17 16 16 16 15 15 14 14 14 14 14 13 13 13 13 13 13 13 13 13 13 13 12 12 13 13 13 13 13 13 13 13 13 13 14 14 14 14 14 14 15 15 15
17 16 16 16 15 15 15 14 14 14 14 14 13 13 13 13 13 13 13 13 13 13 13 12 12 12 12 13 13 13 13 13 13 13 13 13 14 14 14 14 14 14 14
17 17 16 16 15 15 15 14 14 14 14 14 13 13 13 13 13 13 13 13 13 13 13 13 13 12 12 12 12 13 13 13 13 13 13 13 13 13 13 14 14 14 14
17 17 16 16 16 15 15 15 14 14 14 14 14 14 13 13 13 13 13 13 13 13 13 13 13 13 13 12 12 12 12 12 12 13 13 13 13 13 13 13 13 13 14
17 17 17 16 16 15 15 15 14 14 14 14 14 14 13 13 13 13 13 13 13 13 13 13 13 13 13 13 12 12 12 12 12 12 12 12 12 12 13 13 13 13 13
17 17 17 16 16 16 15 15 15 14 14 14 14 14 14 13 13 13 13 13 13 13 13 13 13 13 13 13 12 12 12 12 12 12 12 12 12 12 12 12 12 12 13
17 17 16 16 16 16 15 15 15 15 14 14 14 14 14 13 13 13 13 13 13 13 12 12 12 12 12 12 12 12 12 12 12 12 12 12 12 12 12 12 12 12 12
17 16 16 16 16 16 15 15 15 15 14 14 14 14 14 14 13 13 13 13 12 12 12 12 12 12 12 12 12 12 12 12 12 12 12 12 12 12 12 12 12 12 12
16 16 16 16 16 16 15 15 15 15 15 14 14 14 14 14 13 13 13 12 12 12 12 12 12 12 12 12 12 12 12 12 12 11 11 11 12 11 11 11 11 11 11
16 16 16 16 16 15 15 15 15 15 15 14 14 14 14 13 13 13 13 12 12 12 12 12 12 11 11 11 11 11 11 11 11 11 11 11 11 11 11 11 11 11 11
15 15 15 15 15 15 15 15 15 15 15 14 14 14 14 13 13 13 13 12 12 12 12 12 11 11 11 11 11 11 11 11 11 11 11 11 11 11 11 11 11 11 10
15 15 15 15 15 15 15 15 15 15 14 14 14 14 14 13 13 13 13 12 12 12 12 12 11 11 11 11 11 11 10 10 10 10 10 10 10 10 10 10 10 10 10
14 14 15 14 14 14 14 14 14 14 14 14 14 14 14 13 13 13 12 12 12 12 12 11 11 11 10 10 10 10 10 10 10 10 10 10 10 10 10 9 9 9 9
14 14 14 14 14 14 14 14 14 14 14 14 14 14 14 13 13 13 13 12 12 12 11 11 11 10 10 10 10 10 10 10 10 10 10 9 9 9 9 9 9 9 9
13 13 13 13 13 13 13 14 14 14 13 13 14 14 14 14 13 13 13 12 12 12 11 11 10 10 10 10 9 9 9 9 9 9 9 9 9 9 9 9 9 9 9
12 12 12 12 13 13 13 13 13 13 13 13 13 13 13 13 13 13 12 12 12 11 11 10 10 10 10 9 9 9 9 9 9 8 8 8 8 8 8 8 8 8 8
11 11 11 11 12 12 12 12 12 13 13 13 13 13 13 12 12 12 12 12 11 11 10 10 10 10 9 9 9 9 8 8 8 8 8 8 8 7 7 7 7 7 7
10 10 10 10 11 11 11 11 11 11 12 13 13 12 12 12 12 12 12 11 11 10 10 10 10 10 9 9 9 8 8 8 8 7 7 7 7 7 7 7 7 6 6
9 9 9 9 10 10 10 10 10 11 11 11 12 12 12 11 11 11 11 11 11 11 11 10 10 10 9 9 8 8 8 8 7 7 7 7 7 6 6 6 6 6 6
8 8 8 9 9 9 9 9 10 10 10 10 11 11 11 11 11 11 11 11 11 11 11 10 10 9 9 9 8 8 8 7 7 7 7 6 6 6 6 6 5 5 5
7 8 8 8 8 8 8 9 9 9 10 10 10 11 11 11 11 11 11 11 11 11 11 10 10 9 9 8 8 8 7 7 7 6 6 6 6 5 5 5 5 5 4
7 7 7 7 8 8 8 8 8 9 9 9 10 10 10 10 10 10 11 11 11 11 10 10 10 9 9 8 8 7 7 7 7 6 6 5 5 5 5 5 4 4 4
6 6 6 7 7 7 7 7 8 8 8 8 9 9 9 9 10 10 10 10 10 10 10 9 9 9 8 8 7 7 7 7 6 6 5 5 5 5 4 4 4 4 3
6 6 6 6 6 6 7 7 7 7 8 8 8 8 9 9 9 10 10 10 9 9 9 9 9 8 8 7 7 7 6 6 6 5 5 5 4 4 4 4 4 3 3
5 5 5 5 5 6 6 6 6 7 7 7 8 8 8 9 9 9 9 9 9 8 8 8 8 8 7 7 6 6 6 6 5 5 5 4 4 4 4 3 3 3 3
5 5 5 5 5 5 5 6 6 6 6 7 7 8 8 8 8 8 9 8 8 8 8 8 7 7 7 6 6 6 5 5 5 4 4 4 4 3 3 3 3 2 2